Dewpoint
44 44 43 43 43 42 42 41 41 41 41 41 40 39 37 35 32 24 20 24 16 8 8 10 10 6 9 11 14 16 17 17 18 14 14 10 9 5 5 2 2 4 3 2 2 -1 -1 1 -3 -5 -3 -8 -6 -4
42 42 41 40 40 40 39 39 39 39 39 39 39 39 38 36 31 25 17 22 19 13 10 16 15 15 14 13 11 17 15 14 13 12 11 12 7 6 3 0 -1 1 -2 -0 -0 -0 -2 -1 -1 -3 -9 -9 -6 -6
38 38 38 37 37 36 36 36 36 36 36 37 37 36 35 33 30 24 21 22 20 12 10 8 7 14 11 17 20 14 15 16 13 13 12 9 -0 3 2 -1 -2 -6 -10 -6 -6 -4 -4 -4 -2 -2 -5 -5 -3 -3
35 35 35 35 35 34 34 34 33 31 30 31 33 33 32 31 30 25 21 24 18 12 4 6 6 4 8 9 11 15 16 11 10 9 6 4 -0 0 -3 -4 -5 -7 -8 -13 -10 -6 -4 -8 -4 -3 -4 -4 -5 -5
35 34 34 33 33 32 31 31 31 31 31 31 29 26 26 25 24 16 14 17 19 15 5 6 10 1 -1 7 7 8 9 8 5 1 -2 -6 -2 -4 -8 -7 -11 -10 -10 -7 -5 -0 -1 -2 -1 -6 -4 -3 -1 -1
32 33 32 31 30 29 28 26 26 26 25 25 26 26 26 23 21 16 14 14 13 16 10 -1 0 -3 -5 4 1 2 2 3 0 -5 -11 -11 -12 -9 -15 -14 -10 -10 -8 -7 -1 -11 -10 -5 -5 -6 -5 -1 1 2
31 30 29 28 26 24 24 24 23 22 23 24 24 23 23 22 12 11 10 13 16 21 8 1 -2 -5 -8 2 0 -1 0 -1 -4 -12 -14 -15 -12 -10 -15 -11 0 -5 -7 -8 -6 -9 -3 -7 3 6 4 2 5 1
29 28 27 26 25 23 22 23 24 22 21 19 20 22 21 19 16 10 14 13 7 0 -1 -7 -8 -8 -7 -7 -8 -4 -6 -6 -8 -20 -17 -18 -14 -16 -7 0 -7 -6 0 -1 -1 1 -0 3 3 3 3 4 3 2
28 26 25 24 23 22 23 23 24 23 18 16 11 10 -1 -1 6 9 12 8 3 -4 -13 -13 -18 -18 -8 -9 -10 -10 -9 -11 -6 -15 -18 -10 -16 -4 3 2 2 5 3 3 6 6 4 4 5 5 5 5 4 4
25 25 25 26 26 26 25 24 24 19 15 10 -1 -10 -2 -12 15 5 -3 -3 -5 -4 -5 -14 -9 -15 -9 -10 -12 -16 -17 -18 -23 -18 -11 -17 -18 -5 -1 2 3 5 4 4 2 1 2 2 3 1 2 3 4 5
27 27 27 27 26 26 25 23 22 13 11 -4 -4 -6 -9 9 -4 -5 -6 -9 -9 -15 -8 -9 -11 -16 -7 -17 -22 -22 -26 -22 -25 -17 -18 -20 -7 3 5 -0 2 1 2 2 3 3 5 2 1 2 2 4 3 3
27 26 27 26 26 26 24 23 20 10 6 4 -1 0 1 -0 -1 -8 -14 -11 -15 -17 -10 -14 -9 -9 -8 -9 -19 -21 -25 -22 -27 -16 -18 -13 -5 5 5 0 -1 1 2 3 3 2 -1 0 2 2 3 -4 -4 0
25 25 25 26 26 25 24 22 19 16 5 2 1 -5 -2 -7 -11 -17 -18 -13 -15 -11 -10 -10 -14 -9 -9 -8 -25 -23 -19 -24 -15 -19 -20 -15 4 4 4 0 1 2 2 1 -1 -1 -1 0 2 2 -0 -4 -3 -0
27 27 25 24 24 24 23 21 16 10 1 -1 -5 -9 -11 -12 -13 -18 -15 -13 -9 -9 -7 -8 -18 -13 -10 -18 -23 -20 -18 -19 -19 -19 -13 3 4 3 4 1 2 1 2 -1 -1 -1 -1 -1 0 -0 -1 -3 -3 -2
26 27 28 27 25 22 21 20 16 2 0 -8 -4 -12 -8 -5 -6 -7 -5 -6 -4 -2 -5 -13 -15 -12 -17 -18 -12 -13 -12 -18 -12 -10 2 4 4 4 3 1 2 0 -0 -3 -2 -1 -1 -0 -2 -2 -1 -3 -3 -1
27 24 22 26 27 25 19 14 6 2 -2 -4 -8 -11 -5 -8 -7 -10 -7 -7 -1 -3 -6 -10 -21 -15 -15 -21 -12 -22 -17 -18 -2 4 5 5 3 4 3 1 3 1 -0 -3 -2 -1 -1 1 -4 -3 -1 -4 -3 1
26 21 27 21 24 23 22 6 4 -6 -5 -6 -8 -3 -6 -7 -6 -6 -3 -3 0 -7 -14 -17 -9 -15 -13 -14 -15 -11 -8 3 5 4 5 4 3 4 1 1 2 1 0 -2 -2 -2 -0 1 -5 -5 -4 -5 -2 -1
19 21 26 23 12 13 2 5 -1 -3 -10 -18 -4 -5 -3 -3 -5 -5 -2 0 -1 -4 -6 -12 -11 -10 -13 -14 -5 2 6 6 5 4 3 3 2 4 2 -0 1 0 0 -1 -2 -2 -0 -3 -5 -5 -2 -4 -2 -3
22 22 25 24 14 4 2 -0 1 -7 -13 -8 -4 -2 -3 -3 -1 -1 0 1 -0 -1 -5 -13 -6 -4 0 7 7 6 6 6 4 3 2 1 2 0 0 0 1 -1 -1 -1 -2 -2 -1 -1 -4 -3 -1 -2 -4 -4
21 24 23 22 14 4 -2 -4 -3 -1 -8 -4 -3 -5 -4 -3 -2 -2 -3 -1 -1 -11 -2 4 6 10 10 10 11 9 8 7 3 0 -1 1 3 -0 1 -0 -0 -0 -1 -2 -2 3 -0 -4 -3 -0 -2 -1 -5 -4
17 17 18 8 1 -7 -12 -18 -9 -13 -11 -6 -11 -8 -7 -7 -8 -9 -8 -4 -6 -4 1 6 10 12 15 13 12 10 9 1 -1 -3 -0 1 3 1 0 -0 -1 -1 -3 -3 -3 -3 -1 -4 -1 2 -4 -7 -3 -4
14 17 7 8 -2 -7 -8 -16 -11 -10 -9 -11 -10 -11 -13 -10 -12 -12 -9 -12 -10 4 5 6 8 9 10 10 9 8 8 6 4 1 7 5 0 1 -0 -0 -2 -4 -3 -3 -2 -4 -4 -3 1 1 -5 -5 -4 -5
11 10 2 2 1 -2 -8 -12 -9 -11 -7 -7 -13 -9 -11 -14 -14 -9 -7 -7 -0 3 5 7 8 9 9 11 9 9 7 6 6 4 2 1 2 2 0 0 -2 -5 -4 -4 -1 -3 -3 4 1 -1 -5 -7 -8 -6
9 -5 -6 -10 -6 -8 -12 -9 -12 -10 -13 -11 -14 -9 -9 -15 -12 -10 -6 -4 3 3 8 7 5 4 6 9 8 9 8 7 6 5 4 1 2 1 1 0 -2 -3 -3 -0 -2 -4 -4 -3 2 -5 -6 -9 -8 -6
2 -5 -5 -8 -14 -7 -10 -10 -12 -7 -13 -20 -15 -13 -12 -16 -9 -11 -6 2 1 1 3 4 3 4 0 2 7 9 10 4 3 2 3 2 3 3 2 1 -1 -3 -1 -4 -5 -5 -5 -3 -4 -6 -8 -8 -6 -11
-8 -14 -10 -16 -11 -9 -13 -12 -15 -15 -18 -17 -16 -17 -20 -15 -10 -6 -3 1 1 2 2 -1 -3 -4 2 6 7 8 9 6 -0 -1 4 2 -1 -3 -2 -1 -1 -2 -1 -3 -7 -8 -6 -4 -5 -8 -9 -11 -3 -11
-9 -10 -11 -4 -8 -10 -11 -14 -16 -16 -18 -14 -14 -16 -15 -12 -12 -1 3 2 3 5 2 0 -1 -2 1 3 6 8 10 8 3 3 6 5 4 1 -1 -1 -0 1 2 -6 -11 -6 -5 -4 -7 -7 -10 -12 -12 -11
-10 -11 -12 -13 -13 -14 -15 -19 -19 -15 -11 -11 -10 -15 -11 -7 -2 6 6 5 -1 -7 -4 -0 -0 1 2 4 6 6 6 3 4 6 6 6 5 5 4 4 3 10 8 -5 0 -1 -3 -4 -13 -9 -16 -14 -15 -13
-13 -12 -10 -16 -20 -18 -15 -11 -10 -9 -7 -10 -11 -9 -6 -2 3 1 5 2 -6 -5 -1 2 6 -2 1 2 4 6 6 1 1 2 0 3 3 5 8 7 5 2 -2 -7 5 6 3 -3 -5 -11 -18 -17 -16 -16
-15 -16 -17 -24 -18 -10 -9 -12 -14 -18 -13 -11 -12 -9 -7 -5 -2 -1 -2 -2 -4 -0 1 0 0 -6 -0 0 4 4 6 6 6 6 3 3 5 8 8 10 8 5 1 -2 -5 -7 3 -3 -9 -17 -17 -17 -16 -14
-16 -19 -19 -19 -15 -15 -19 -23 -25 -19 -23 -24 -22 -16 -13 -12 -10 -3 -5 -4 -4 -8 -7 0 5 3 2 5 2 2 7 7 7 7 7 8 7 7 9 11 7 2 0 -2 -4 -6 -10 -11 -15 -19 -19 -20 -20 -16
-18 -22 -17 -16 -11 -20 -26 -26 -27 -24 -25 -22 -17 -23 -18 -15 -10 3 3 -6 -7 -3 6 7 4 8 8 7 5 5 11 10 8 8 7 9 10 11 12 12 6 2 2 -0 -2 -5 -8 -10 -11 -13 -16 -18 -20 -20
-27 -29 -30 -24 -16 -15 -17 -19 -19 -16 -19 -18 -15 -15 -14 -10 -5 5 3 0 5 8 8 9 9 8 7 5 5 6 10 8 8 14 17 18 18 19 21 11 9 6 3 3 2 -1 -5 -7 -9 -10 -11 -13 -16 -18
Lifted_Index
10 11 11 11 11 11 11 11 11 10 10 10 9 8 7 7 6 5 6 7 7 6 9 14 15 13 11 10 8 8 9 9 8 6 6 6 6 6 7 8 8 8 8 8 8 8 9 12 13 13 13 15 16 16
12 13 13 13 13 12 12 12 12 12 11 11 10 10 9 8 8 7 7 9 9 8 12 16 18 17 16 14 12 11 10 10 10 9 9 8 8 8 8 8 9 10 10 10 10 10 11 13 13 13 14 15 15 15
15 15 15 15 15 15 14 14 14 14 13 13 12 12 11 10 10 9 9 11 11 10 13 17 19 20 20 19 17 15 14 14 13 13 12 10 10 10 10 10 11 13 13 12 12 12 12 13 13 13 13 14 14 14
16 16 16 16 16 16 16 17 17 16 16 15 15 14 14 13 13 12 12 13 12 11 11 15 19 21 21 21 19 17 16 16 15 14 13 12 12 12 12 12 13 13 13 12 11 11 12 12 12 12 12 12 12 13
16 16 17 17 17 18 18 18 18 18 18 18 17 17 16 16 15 14 14 15 14 12 11 14 19 21 22 21 20 19 18 17 16 15 14 13 13 13 12 12 12 13 12 11 10 11 11 11 12 12 12 12 12 12
16 17 17 17 18 18 19 19 19 19 19 18 18 17 17 16 16 15 15 16 17 15 12 13 18 20 21 20 19 18 17 16 15 14 13 12 12 12 11 11 11 12 11 11 11 11 12 12 12 12 12 12 12 13
17 17 18 18 18 18 19 19 19 19 18 18 17 17 16 16 15 15 15 17 18 17 14 13 15 18 18 17 16 15 15 14 13 11 11 10 10 10 10 10 10 11 11 11 11 12 12 12 12 13 13 13 13 13
17 17 18 18 18 18 18 18 18 18 17 17 16 16 15 15 14 14 16 17 17 15 13 12 12 13 15 14 13 12 12 11 10 9 9 9 9 9 9 10 10 11 11 12 12 12 12 13 13 13 13 14 14 14
17 17 17 17 17 17 17 17 17 16 16 15 14 13 12 12 13 13 14 15 14 13 11 10 9 10 11 11 10 10 9 8 8 8 8 8 8 8 9 10 10 11 12 12 12 12 13 13 13 14 14 14 14 14
17 17 17 17 17 17 16 16 15 14 13 12 11 10 10 11 12 12 11 11 10 11 10 10 9 9 9 9 8 8 7 6 6 6 7 7 7 8 10 10 11 11 12 12 12 12 13 13 13 14 14 14 14 14
16 16 16 16 16 16 15 14 13 12 11 10 9 9 10 11 10 9 9 9 9 9 10 9 9 9 9 8 7 7 6 6 5 6 6 6 7 9 10 11 11 12 12 12 12 12 12 12 13 13 13 13 13 13
16 15 15 15 15 14 13 13 12 11 10 9 9 10 10 9 8 8 8 8 8 8 8 9 8 9 10 9 8 7 6 6 6 6 6 7 8 10 10 11 12 12 12 12 12 11 11 12 12 12 12 12 12 12
15 15 14 14 13 12 11 11 10 10 9 9 9 9 9 9 8 7 7 7 7 8 8 9 9 9 10 9 8 7 7 6 6 6 7 8 10 10 11 12 12 12 11 11 11 11 11 11 11 12 12 12 12 12
14 13 13 12 11 10 9 9 9 9 10 10 9 9 9 9 8 8 8 8 8 9 9 9 9 9 9 9 8 7 7 7 6 7 8 9 11 11 12 12 12 11 11 11 11 11 11 11 12 12 12 13 13 13
13 12 12 11 10 9 9 9 10 10 11 11 10 9 9 9 9 9 8 9 9 9 9 9 9 9 9 9 8 8 7 7 7 8 9 10 11 12 12 12 12 12 12 12 12 12 12 12 12 12 13 13 13 13
12 11 11 11 10 10 10 10 11 12 13 12 11 10 9 9 9 9 9 9 10 10 9 9 9 9 8 8 8 8 7 7 8 10 11 12 12 13 13 13 12 12 12 13 13 13 13 13 13 13 13 13 14 14
10 10 10 10 10 10 10 11 12 13 12 12 11 10 10 9 9 9 9 10 10 10 9 9 8 8 8 7 7 8 9 9 10 11 12 13 13 13 13 13 13 13 13 13 13 13 13 14 13 13 13 13 13 14
10 10 10 10 9 10 11 12 13 12 11 11 10 10 10 10 10 10 10 11 10 10 9 9 8 7 7 7 8 9 10 11 12 12 13 14 14 14 13 13 13 13 13 13 13 13 13 14 13 13 13 13 13 13
9 9 9 9 10 10 11 12 12 12 11 11 11 11 11 11 11 11 11 11 11 11 10 9 8 7 7 8 9 10 11 12 12 12 13 14 14 14 14 14 14 14 14 14 13 13 14 14 13 14 14 14 13 13
8 8 8 9 10 11 11 12 12 11 10 11 11 10 10 10 11 11 11 10 10 10 9 8 8 8 8 9 11 12 12 13 13 12 13 14 15 15 15 15 15 15 14 14 14 14 14 14 14 14 14 14 13 13
8 8 9 9 10 11 11 12 11 11 11 10 10 10 10 10 10 10 10 10 9 9 8 8 8 8 9 10 11 12 13 14 13 13 14 14 15 15 15 15 15 15 15 14 14 14 14 14 14 15 14 14 14 13
9 9 9 9 10 11 11 11 11 11 10 10 10 9 9 9 9 9 10 10 9 9 9 9 8 9 9 9 10 12 13 14 14 14 14 15 15 15 15 15 15 15 15 15 15 15 14 14 15 15 14 14 14 13
9 9 9 9 10 10 11 11 10 10 9 9 9 9 9 9 9 10 9 10 10 10 10 9 9 8 9 9 10 11 12 13 13 14 14 14 15 15 15 16 16 15 15 15 16 15 15 15 15 14 14 14 13 13
9 8 9 9 9 9 10 10 10 9 9 8 8 8 8 9 9 9 9 9 10 10 10 10 9 9 9 9 9 10 11 12 13 13 13 14 14 14 15 16 16 16 16 16 16 16 15 15 15 14 14 14 13 13
7 8 8 9 9 9 8 8 8 8 8 8 8 8 9 9 9 9 9 10 10 10 10 10 10 9 9 9 9 9 10 11 12 12 13 14 14 14 14 14 15 16 17 16 16 15 15 15 15 15 14 14 13 13
6 7 9 9 9 9 8 8 8 8 8 8 9 9 9 9 9 9 10 10 11 11 11 11 10 10 9 9 9 9 10 11 11 11 13 14 14 14 13 13 14 15 17 17 16 15 15 15 15 15 14 14 14 14
7 8 9 10 10 9 9 9 9 9 9 9 9 10 10 9 10 10 11 12 12 12 12 12 11 11 10 10 9 9 10 10 10 11 12 14 14 15 14 14 14 16 17 17 17 16 15 15 15 15 15 15 15 15
8 9 9 9 9 9 9 9 9 9 10 10 10 10 10 10 10 11 12 12 13 13 13 12 12 11 11 11 10 10 9 9 9 9 10 11 13 14 15 15 16 16 17 17 17 16 16 16 15 15 15 15 15 15
9 9 9 9 9 9 9 9 10 10 10 11 10 10 11 11 11 12 12 12 13 12 12 12 12 11 11 11 11 10 10 9 9 8 8 9 10 12 14 15 16 16 16 16 16 16 16 16 16 15 15 15 15 15
10 10 9 9 9 9 10 10 11 11 11 11 11 11 11 11 11 12 12 12 12 12 11 11 11 11 11 10 10 10 10 10 10 9 9 8 9 10 12 14 15 15 15 15 15 15 15 15 15 15 15 15 15 15
10 10 9 9 9 9 10 11 11 11 11 10 10 11 10 10 11 11 11 12 12 12 11 11 11 11 11 10 10 10 10 11 11 11 10 10 10 10 11 12 14 14 15 14 14 14 14 14 14 14 14 14 14 14
10 9 9 9 9 9 10 10 10 10 10 10 10 10 10 10 10 11 11 11 12 12 12 12 12 12 12 12 11 11 11 11 11 11 11 11 11 11 11 12 12 13 13 13 13 13 13 13 13 13 14 14 14 14
9 9 9 9 8 9 9 9 9 9 9 9 9 9 10 10 10 11 11 12 12 12 12 12 12 12 12 12 12 12 12 12 12 12 12 12 12 11 11 11 11 12 12 12 12 13 13 13 13 13 13 13 14 14